Miscellaneous Local Product
Issued by NWS North Platte, NE

Home | Current Version | Previous Version | Text Only | Print | Product List | Glossary On
Versions: 1 2 3 4 5 6 7 8 9 10 11 12 13 14 15 16 17 18 19 20 21 22 23 24 25 26 27 28 29 30 31 32 33 34 35 36 37 38 39 40 41 42 43 44 45 46 47 48 49 50
219
AXUS43 KLBF 050210
MISLBF


WESTERN AND NORTH CENTRAL NEBRASKA HOURLY WEATHER ROUNDUP
NATIONAL WEATHER SERVICE NORTH PLATTE NE
800 PM CST THU FEB 04 2016

NOTE: "FAIR" INDICATES FEW OR NO CLOUDS BELOW 12,000 FEET WITH NO
SIGNIFICANT WEATHER AND/OR OBSTRUCTIONS TO VISIBILITY.

NOTE: STATIONS NOT REPORTING VARIABLES SUCH AS SKY/WEATHER OR
PRESSURE ARE PROVIDED BY THE NEBRASKA DEPARTMENT OF
ROADS...RAWS...AND APRS NETWORKS...AND ARE NOT UNDER
NATIONAL WEATHER SERVICE QUALITY CONTROL.

...OBSERVATIONS IN AND NEAR THE EASTERN PANHANDLE OF NEBRASKA...

CITY           SKY/WX    TMP DP  RH WIND       PRES   REMARKS
PINE RIDGE     CLOUDY    28  19  69 SW5       30.11S WCI  23
CHADRON        CLOUDY    30  21  69 SW7       30.13S WCI  23
ALLIANCE       CLOUDY    29  21  72 W17       30.13S WCI  17
SIDNEY         CLOUDY    25  16  68 W6        30.17S WCI  18
CRESCENT LAKE    N/A     26  18  70 SW3         N/A
$$

...OBSERVATIONS IN NORTH CENTRAL NEBRASKA...

CITY           SKY/WX    TMP DP  RH WIND       PRES   REMARKS
VALENTINE      CLOUDY    23  17  78 SW7       30.15S WCI  15
THEDFORD       CLOUDY    25  17  72 SW6       30.18R WCI  18
AINSWORTH      CLOUDY    24  18  77 S8        30.17S WCI  15
O`NEILL        CLOUDY    20  13  73 S6        30.23S WCI  12
ORD            CLOUDY    16  12  84 SW7       30.24S WCI   6
BROKEN BOW     CLOUDY    18  13  80 SE3       30.21R
VALENTINE NWR    N/A     24  15  68 SW3         N/A
BUTTE            N/A     23  16  75 S8          N/A  WCI  14
HALSEY           N/A     27  14  57 S3          N/A
CHAMBERS         N/A     15   6  67 CALM        N/A
EWING            N/A     16  14  90 CALM        N/A
$$

...OBSERVATIONS IN SOUTHWEST NEBRASKA AND FAR NORTHEAST COLORADO...

CITY           SKY/WX    TMP DP  RH WIND       PRES   REMARKS
WRAY           FAIR      25  14  63 SW3       30.21R
HOLYOKE        FAIR      21  14  73 W7        30.20S WCI  13
IMPERIAL       CLOUDY    21  13  71 W8        30.21S WCI  11
OGALLALA       CLOUDY    19  13  75 W7        30.19S WCI  10
NORTH PLATTE   CLOUDY    19  13  77 CALM      30.21S
MCCOOK         CLOUDY    21  14  74 W9        30.24S WCI  11
LEXINGTON      CLOUDY    22  15  75 SE6       30.24S WCI  15
PAXTON           N/A     19  15  82 SW5         N/A  WCI  12
STAPLETON        N/A     21  16  81 CALM        N/A
GOTHENBURG       N/A     24  17  74 CALM        N/A
CALLAWAY         N/A     19  15  84 SW5         N/A  WCI  12
$$

...OBSERVATIONS IN CENTRAL LINCOLN COUNTY AREA...

CITY           SKY/WX    TMP DP  RH WIND       PRES   REMARKS
N.P. AIRPORT   CLOUDY    19  13  77 CALM      30.21S
N.P. DOWNTOWN    N/A     22  16  77 CALM        N/A
N.P. SOUTHEAST   N/A     22  15  75 CALM        N/A
N.P. HILLCREST   N/A     22  17  80 CALM        N/A
$$

...SOME OBSERVATIONS FROM AROUND THE REGION...

CITY           SKY/WX    TMP DP  RH WIND       PRES   REMARKS
DENVER         CLOUDY    20   8  60 SW3       30.13S
LARAMIE        CLOUDY    19  10  68 SW18      30.10R WCI   4
CHEYENNE       CLOUDY    27  13  55 W22G32    30.10S WCI  13
SCOTTSBLUFF    LGT SNOW  29  25  85 W15       30.16S FOG     WCI  18
RAPID CITY     CLOUDY    29  22  75 CALM      30.06R
BISMARCK       MOCLDY    32  17  54 S9        30.04F WCI  24
PIERRE         MOCLDY    24  19  81 S7        30.13S WCI  16
WINNER         FAIR      25  14  63 S10       30.17S WCI  15
SIOUX FALLS    CLEAR     13   8  81 CALM      30.25R
OMAHA          CLEAR     25  19  78 NW6       30.31R WCI  18
GRAND ISLAND   CLOUDY    18  13  80 S3        30.29R
KANSAS CITY    CLEAR     31  19  61 NW7       30.30R WCI  24
WICHITA        CLEAR     35  16  45 NW6       30.31R WCI  30
OKLAHOMA CITY  PTCLDY    36  17  46 S5        30.34R WCI  32
LIBERAL        CLOUDY    34   7  32 CALM      30.26R
HAYS           CLOUDY    19   7  58 CALM      30.29S
GOODLAND       CLOUDY    20  12  71 SW3       30.22R
$$




USA.gov is the U.S. government's official web portal to all federal, state and local government web resources and services.